Location: *
(29.1167°S, 130.0000°E)
Time: 04:33:29
(UTC+00:00)

Cosmos 1812 Rocket - Pass Details

Date: 21 July 2019
Orbit: 605 x 633 km, 82.5° (Epoch: 20 August)

Event Time Altitude Azimuth Distance (km) Brightness Sun altitude
Rises 09:43:24 0° 350° (N) 2,851 7.3 -13.3°
Reaches altitude 10° 09:45:36 10° 348° (NNW) 1,953 6.5 -13.8°
Maximum altitude 09:49:54 70° 264° (W) 651 3.8 -14.7°
Drops below altitude 10° 09:54:16 10° 179° (S) 1,978 6.0 -15.6°
Sets 09:56:31 0° 177° (S) 2,890 6.8 -16.1°
